Wind_Speed
44 44 44 43 43 43 43 43 43 43 42 42 43 43 43 44 45 45 46 46 47 47 47 47 48 47 47 48 48 48 48 47 46 45 45 45 45 44 44 44 44 46
45 45 45 45 45 45 45 45 45 45 44 44 44 45 45 45 46 46 47 46 47 47 47 48 48 47 47 47 47 47 46 46 45 45 45 44 44 43 43 44 45 46
47 47 47 47 47 47 47 47 47 47 47 46 46 46 47 47 47 48 48 47 47 47 47 48 49 48 48 47 47 46 46 45 45 45 45 43 42 41 41 42 44 45
50 50 49 49 48 48 49 49 49 49 49 49 49 49 49 49 49 48 48 48 48 48 48 49 49 49 49 48 48 47 46 46 45 44 44 43 41 40 40 42 43 45
53 52 52 51 50 50 50 50 50 51 51 51 52 52 52 52 51 50 50 49 49 49 49 50 50 50 50 49 49 49 48 46 45 44 45 44 42 42 42 44 45 46
55 54 53 53 52 51 51 51 51 52 53 53 53 54 54 54 54 54 53 52 51 51 51 51 51 51 50 50 50 50 49 48 46 45 46 46 45 46 46 47 48 48
56 55 54 54 53 53 52 52 53 54 54 55 54 55 56 56 56 56 56 55 54 53 53 53 52 52 51 50 51 50 50 50 48 48 48 48 48 49 50 50 50 50
57 56 56 55 55 54 54 55 55 56 56 56 56 57 57 57 57 57 57 57 56 56 56 55 54 54 53 52 52 52 51 51 50 50 50 50 50 51 51 52 53 52
59 58 58 57 56 56 56 56 57 58 58 58 58 58 59 58 58 58 58 58 58 57 57 56 55 54 54 53 53 53 52 52 51 51 51 51 51 52 53 54 54 54
60 60 60 59 59 58 58 58 59 59 59 59 59 60 60 60 59 59 59 59 58 58 57 56 55 54 54 53 53 53 53 53 53 53 53 53 53 53 54 54 55 55
59 60 60 60 60 59 59 59 59 60 60 60 60 60 61 61 61 61 60 60 59 59 58 56 55 55 54 54 55 55 54 54 55 55 55 54 55 55 55 55 56 56
58 58 59 59 59 60 60 60 60 60 60 60 61 61 61 62 62 62 62 62 61 60 59 58 57 56 56 56 58 59 59 59 58 58 57 57 57 57 57 57 57 57
56 56 57 58 58 59 59 59 60 60 61 61 61 61 62 63 63 63 64 64 64 63 62 61 60 59 59 61 62 63 64 64 63 62 61 60 59 58 58 58 58 57
52 54 55 56 57 58 58 58 59 59 60 60 61 61 62 62 63 63 64 65 65 66 66 65 65 65 66 67 67 68 67 67 67 66 65 64 62 61 60 60 59 58
48 49 51 52 54 55 56 56 57 57 58 58 58 58 58 59 59 59 60 61 62 63 64 65 65 65 65 66 66 66 66 67 68 68 68 66 65 64 63 62 61 60
51 50 50 51 52 53 53 53 53 53 53 53 54 54 54 55 54 54 54 54 55 56 57 58 58 58 59 59 60 61 61 62 63 64 64 64 64 64 63 62 61 60
57 56 55 55 56 56 56 55 54 53 53 52 52 51 52 51 51 51 51 51 51 51 52 53 54 55 56 57 58 59 60 60 60 60 60 60 60 60 59 59 58 58
63 62 61 60 60 60 61 60 59 59 58 57 56 55 54 53 52 52 52 52 52 52 52 53 54 55 57 59 60 61 62 62 61 61 60 60 59 58 57 56 56 55
69 68 66 66 65 65 65 65 64 64 63 63 62 62 61 60 59 58 57 57 57 57 56 56 57 58 60 61 62 63 64 64 64 64 63 62 61 59 58 56 55 54
72 72 72 72 71 71 70 69 69 69 68 68 68 67 66 66 65 65 64 64 64 63 62 61 61 63 64 64 65 66 66 67 67 66 66 65 64 63 61 59 57 55
73 74 74 75 76 76 75 74 74 74 75 74 74 73 72 71 71 70 69 69 68 68 67 66 65 66 67 68 68 69 70 70 69 69 68 67 67 66 64 63 60 57
73 74 74 75 77 78 78 78 78 78 79 79 79 78 77 76 75 74 74 73 72 72 71 70 69 68 68 69 71 72 73 73 72 72 71 70 69 67 66 64 61 59
74 74 74 75 77 78 79 79 79 78 79 79 79 79 79 79 78 78 77 77 77 76 75 74 73 72 71 71 72 73 75 75 75 74 73 72 71 69 67 65 63 61
76 76 76 76 77 78 79 80 80 79 78 78 78 78 79 79 79 79 79 79 79 78 78 77 75 74 74 73 73 74 76 77 77 76 75 75 73 71 69 67 66 64
78 78 78 78 78 78 79 80 81 81 80 80 80 80 79 79 79 78 78 78 78 78 78 77 76 75 74 74 73 74 76 77 78 78 77 75 74 72 71 70 68 66
78 79 80 79 78 78 78 79 81 82 82 82 82 82 81 81 80 79 78 77 77 77 77 76 75 75 74 74 73 73 74 76 77 77 76 76 75 73 72 70 69 66
Wind_Direction
269 271 272 274 275 277 278 278 279 280 281 283 284 284 283 282 282 282 282 283 283 284 284 284 284 284 284 284 285 286 286 287 287 286 285 284 284 285 286 287 288 289
267 268 270 272 273 275 276 277 278 279 281 282 283 283 283 283 282 282 282 282 283 284 284 285 285 285 285 285 286 287 288 288 287 286 285 285 284 284 285 286 286 286
267 268 269 270 272 273 274 275 277 278 279 280 281 281 281 281 281 281 282 282 282 283 283 283 284 285 285 286 287 288 289 289 289 287 287 287 286 286 286 285 285 285
268 269 269 270 270 271 272 273 275 276 276 277 278 278 279 279 280 280 281 281 281 281 281 282 283 283 284 285 286 288 288 289 289 288 288 288 287 286 286 285 285 285
269 269 269 270 270 270 270 271 272 273 274 275 275 276 277 278 279 280 280 281 281 281 280 280 281 282 282 284 285 285 287 288 288 288 287 288 286 285 285 285 286 286
267 267 268 268 268 268 268 269 269 270 271 272 273 275 276 277 278 279 280 280 280 280 280 280 280 281 282 283 283 284 285 286 287 286 285 286 285 285 285 286 286 286
266 266 266 266 266 266 266 266 267 268 269 270 271 273 274 275 276 278 278 279 279 279 279 279 279 280 281 282 282 283 284 285 285 285 285 285 285 285 286 287 287 287
265 265 265 264 264 265 265 266 266 267 267 269 270 271 272 273 275 276 277 277 278 278 278 278 279 279 280 281 282 283 284 285 286 286 286 286 286 286 287 287 287 287
265 265 264 264 264 264 264 265 265 266 267 268 269 270 271 272 273 274 275 276 277 277 278 278 279 279 280 282 283 284 285 286 287 287 287 287 286 286 286 286 287 287
265 265 265 264 264 264 263 264 264 265 266 267 269 270 271 272 273 273 274 275 276 277 277 278 279 280 281 282 284 285 286 287 287 287 287 287 287 286 286 286 286 287
264 264 265 264 264 264 264 264 264 265 266 268 269 270 271 272 272 273 273 274 275 275 276 277 278 280 282 284 285 286 287 287 288 288 288 287 287 287 287 287 287 287
263 264 264 265 265 265 265 265 265 266 267 268 269 270 271 272 273 273 274 274 274 275 275 277 278 280 283 285 287 288 288 288 287 287 287 287 288 288 288 288 288 288
264 264 265 265 265 266 266 266 266 266 267 267 268 269 270 271 272 273 274 274 275 275 276 277 278 280 283 285 287 288 288 288 287 286 286 286 286 287 288 288 289 289
263 264 264 265 265 266 266 266 266 266 267 267 268 269 269 270 271 272 273 274 275 276 277 278 279 281 283 285 286 287 287 286 286 285 285 285 285 286 287 288 288 289
266 264 264 264 264 265 265 266 266 267 268 269 270 271 271 272 272 273 274 275 276 277 278 279 280 282 284 285 286 287 286 286 285 285 286 286 286 286 286 287 287 286
269 268 266 265 265 266 266 267 267 268 269 270 271 271 272 272 273 273 274 274 276 277 278 280 281 283 285 286 287 288 288 288 287 287 288 288 288 287 287 287 286 286
271 270 269 268 268 269 270 270 270 271 271 272 273 273 272 272 272 272 273 273 274 275 276 278 279 281 283 284 286 287 288 288 288 288 288 288 288 288 288 288 288 288
271 271 270 269 269 270 271 271 272 272 273 273 273 273 273 273 273 273 273 273 274 274 276 277 279 281 282 283 284 285 286 286 286 286 286 286 286 287 287 288 288 288
272 272 272 271 270 270 270 271 271 271 271 272 272 272 272 273 273 273 274 275 275 276 277 278 280 280 281 282 283 283 284 284 284 285 285 285 286 286 286 286 287 287
271 272 272 272 272 272 271 271 271 271 271 271 271 271 272 272 272 273 273 274 275 276 276 277 278 278 278 279 280 280 281 281 282 282 283 283 284 285 286 286 286 286
269 270 270 271 271 272 272 272 272 272 272 272 272 272 272 272 272 272 272 272 273 273 274 274 275 275 275 276 277 277 278 278 279 280 280 281 281 282 283 284 284 284
267 267 268 268 269 270 270 271 271 271 272 272 272 272 272 272 271 271 271 272 272 272 272 273 273 272 272 272 273 274 275 276 277 278 279 279 280 281 282 282 283 283
263 264 265 266 267 268 269 269 269 268 268 268 269 269 270 270 270 270 270 271 271 271 271 271 271 271 270 269 270 272 273 274 275 276 277 279 280 281 282 283 283 284
260 261 262 262 263 265 266 267 268 267 266 266 266 266 267 267 268 268 269 269 269 270 270 270 270 271 270 269 268 270 272 274 274 275 276 278 279 281 282 282 283 283
261 261 262 261 261 261 262 263 264 265 266 266 266 266 266 266 266 267 267 268 268 269 269 270 270 271 271 271 270 270 271 273 274 275 276 277 279 280 281 281 282 282
263 263 263 263 262 261 260 260 261 262 263 264 265 265 266 266 266 267 267 268 268 269 269 270 270 271 272 272 272 271 272 273 274 275 276 277 278 279 279 280 281 281
Height
5808 5807 5807 5807 5807 5807 5807 5807 5806 5806 5807 5807 5806 5806 5805 5804 5803 5802 5801 5800 5799 5799 5799 5798 5797 5797 5796 5795 5794 5794 5793 5792 5792 5791 5790 5789 5789 5788 5786 5784 5783 5782
5803 5802 5802 5802 5802 5802 5802 5802 5802 5802 5802 5802 5802 5801 5801 5800 5799 5798 5797 5796 5795 5794 5794 5793 5792 5791 5790 5790 5789 5788 5787 5787 5786 5785 5784 5784 5783 5782 5782 5780 5778 5776
5797 5797 5797 5797 5797 5797 5797 5797 5797 5797 5797 5797 5797 5796 5796 5795 5794 5793 5793 5792 5791 5790 5789 5788 5787 5786 5785 5784 5784 5783 5782 5781 5780 5779 5778 5778 5777 5776 5776 5774 5772 5771
5792 5792 5793 5793 5793 5792 5792 5791 5792 5791 5791 5791 5791 5790 5790 5790 5789 5789 5788 5788 5787 5786 5785 5783 5782 5782 5781 5779 5779 5778 5777 5776 5775 5774 5773 5772 5772 5771 5770 5768 5767 5766
5786 5787 5787 5787 5787 5787 5786 5786 5786 5785 5785 5785 5784 5784 5784 5784 5783 5783 5783 5783 5782 5781 5780 5779 5778 5777 5776 5775 5774 5773 5772 5771 5770 5768 5767 5767 5766 5765 5764 5762 5761 5760
5780 5780 5780 5780 5780 5780 5780 5780 5780 5779 5779 5778 5778 5778 5777 5777 5777 5777 5777 5777 5776 5776 5775 5774 5773 5772 5771 5770 5768 5768 5767 5766 5765 5763 5762 5761 5760 5759 5758 5756 5755 5754
5772 5773 5773 5773 5773 5773 5774 5774 5773 5773 5773 5772 5773 5772 5772 5772 5771 5771 5771 5771 5770 5770 5769 5768 5767 5766 5765 5764 5763 5763 5761 5760 5759 5758 5757 5756 5755 5753 5752 5750 5749 5748
5765 5765 5765 5765 5766 5766 5766 5766 5766 5766 5766 5766 5767 5766 5766 5766 5766 5765 5765 5764 5764 5763 5762 5761 5761 5760 5759 5758 5757 5757 5756 5755 5754 5753 5752 5751 5749 5748 5746 5744 5743 5742
5758 5758 5758 5758 5759 5759 5759 5759 5759 5759 5759 5760 5760 5760 5760 5760 5759 5759 5759 5758 5757 5757 5756 5755 5754 5753 5753 5752 5751 5751 5750 5749 5749 5747 5746 5745 5744 5743 5741 5739 5737 5736
5751 5751 5751 5751 5752 5752 5752 5752 5752 5752 5752 5753 5753 5753 5753 5753 5753 5753 5752 5752 5751 5750 5750 5749 5748 5747 5746 5746 5745 5745 5744 5743 5742 5741 5740 5739 5738 5737 5735 5733 5732 5731
5743 5743 5743 5744 5745 5745 5745 5745 5745 5746 5746 5746 5746 5746 5746 5746 5746 5745 5745 5745 5745 5744 5743 5743 5742 5741 5740 5739 5738 5738 5738 5737 5736 5735 5734 5733 5732 5731 5729 5728 5726 5725
5736 5737 5736 5737 5737 5738 5738 5738 5739 5739 5739 5739 5739 5739 5739 5738 5738 5738 5737 5738 5738 5737 5737 5736 5735 5735 5734 5733 5732 5731 5731 5730 5730 5729 5728 5727 5726 5725 5723 5722 5721 5720
5730 5730 5730 5730 5730 5730 5731 5731 5731 5731 5731 5731 5731 5731 5731 5730 5730 5730 5730 5730 5730 5730 5730 5729 5729 5728 5727 5726 5725 5724 5723 5722 5722 5721 5721 5720 5719 5718 5717 5716 5715 5713
5723 5723 5723 5723 5723 5723 5723 5723 5723 5723 5724 5724 5723 5723 5723 5722 5722 5723 5723 5723 5723 5723 5723 5723 5722 5722 5720 5719 5717 5716 5715 5714 5714 5713 5713 5713 5712 5711 5710 5709 5708 5707
5717 5717 5717 5717 5716 5716 5716 5716 5716 5716 5716 5716 5716 5716 5715 5715 5715 5715 5715 5715 5715 5715 5715 5715 5715 5714 5712 5710 5709 5708 5707 5706 5706 5705 5705 5705 5704 5704 5703 5701 5700 5699
5710 5710 5710 5710 5710 5710 5709 5709 5709 5709 5709 5709 5709 5709 5708 5708 5708 5708 5708 5708 5707 5707 5707 5706 5706 5705 5703 5701 5700 5699 5698 5697 5697 5697 5697 5696 5696 5696 5695 5694 5692 5691
5702 5703 5703 5703 5703 5703 5702 5703 5702 5702 5703 5702 5702 5702 5701 5701 5701 5701 5700 5700 5700 5699 5699 5698 5697 5696 5694 5693 5691 5690 5689 5688 5688 5688 5688 5688 5688 5687 5687 5686 5684 5683
5693 5694 5695 5695 5695 5695 5695 5695 5695 5695 5695 5694 5694 5694 5694 5694 5695 5694 5693 5693 5692 5692 5692 5691 5691 5689 5687 5686 5685 5683 5681 5680 5680 5680 5680 5680 5679 5679 5679 5678 5677 5676
5684 5684 5685 5686 5686 5686 5686 5686 5686 5686 5685 5685 5685 5685 5685 5686 5686 5686 5686 5685 5685 5685 5685 5685 5684 5682 5680 5679 5678 5676 5674 5673 5673 5673 5672 5672 5672 5671 5671 5670 5669 5668
5676 5676 5676 5676 5675 5676 5677 5677 5677 5676 5676 5675 5675 5676 5676 5677 5677 5677 5677 5677 5677 5678 5678 5678 5677 5674 5672 5671 5670 5668 5666 5665 5665 5665 5664 5664 5664 5663 5662 5661 5661 5659
5667 5668 5668 5667 5666 5666 5667 5668 5667 5666 5665 5665 5665 5666 5667 5667 5667 5667 5667 5667 5668 5668 5669 5671 5670 5666 5663 5662 5661 5659 5657 5657 5657 5657 5656 5656 5655 5654 5653 5653 5652 5651
5657 5658 5658 5658 5657 5657 5657 5658 5657 5656 5655 5654 5655 5656 5656 5656 5657 5656 5657 5657 5657 5657 5658 5660 5660 5657 5655 5654 5652 5650 5648 5647 5648 5648 5647 5647 5647 5646 5645 5644 5643 5642
5647 5648 5648 5648 5647 5647 5647 5647 5647 5647 5646 5645 5646 5646 5646 5646 5646 5646 5646 5646 5647 5647 5647 5649 5649 5647 5645 5644 5643 5641 5639 5638 5638 5638 5638 5639 5638 5637 5636 5635 5635 5634
5637 5638 5639 5638 5638 5637 5636 5636 5636 5636 5636 5635 5636 5636 5637 5636 5635 5636 5636 5636 5636 5636 5636 5637 5638 5637 5634 5633 5633 5631 5629 5629 5628 5628 5629 5630 5629 5628 5627 5627 5626 5626
5625 5626 5627 5628 5628 5628 5627 5626 5625 5625 5625 5625 5625 5625 5626 5626 5625 5625 5626 5626 5625 5626 5625 5626 5627 5626 5623 5622 5623 5621 5619 5619 5618 5618 5620 5621 5619 5618 5618 5618 5618 5617
5612 5613 5614 5614 5615 5616 5617 5616 5615 5614 5614 5614 5614 5614 5614 5614 5614 5614 5615 5616 5615 5615 5615 5615 5616 5616 5614 5612 5612 5611 5609 5608 5608 5609 5610 5610 5608 5608 5609 5609 5609 5609